Weather reports worldwide

Advertisment
Lecce, Italy (16332): temperature & dewpoint: 19.09.2018 12:00:00 - 25.09.2018 12:00:00 (CEST)Lecce, Italy (16332): wind speed: 19.09.2018 12:00:00 - 25.09.2018 12:00:00 (CEST)Lecce, Italy (16332): wind direction: 19.09.2018 12:00:00 - 25.09.2018 12:00:00 (CEST)Lecce, Italy (16332): reduced air pressure: 19.09.2018 12:00:00 - 25.09.2018 12:00:00 (CEST)Lecce, Italy (16332): visibility: 19.09.2018 12:00:00 - 25.09.2018 12:00:00 (CEST)
Date & Time tt [°C] td [°C] ff [km/h] ff [kn] dd ppp [hPa] vv [km]
25.09.2018 12:00:00 - - - - - - -
25.09.2018 11:00:00 20,6 11,0 31 17 N 1022,7 10
25.09.2018 10:00:00 - - - - - - -
25.09.2018 09:00:00 - - - - - - -
25.09.2018 08:00:00 19,2 13,4 21 11 N 1021,0 10
25.09.2018 07:00:00 - - - - - - -
25.09.2018 06:00:00 - - - - - - -
25.09.2018 05:00:00 20,2 15,0 26 14 NNW 1019,5 10
25.09.2018 04:00:00 - - - - - - -
25.09.2018 03:00:00 - - - - - - -
25.09.2018 02:00:00 20,8 17,6 18 10 N 1018,6 10
25.09.2018 01:00:00 - - - - - - -
25.09.2018 00:00:00 - - - - - - -
24.09.2018 23:00:00 22,8 22,0 11 6 NNW 1016,3 10
24.09.2018 22:00:00 - - - - - - -
24.09.2018 21:00:00 - - - - - - -
24.09.2018 20:00:00 25,4 22,9 8 4 E 1014,2 10
24.09.2018 19:00:00 - - - - - - -
24.09.2018 18:00:00 - - - - - - -
24.09.2018 17:00:00 30,8 22,4 13 7 ENE 1012,5 10
24.09.2018 16:00:00 - - - - - - -
24.09.2018 15:00:00 - - - - - - -
24.09.2018 14:00:00 29,6 20,2 5 3 N 1013,6 10
24.09.2018 13:00:00 - - - - - - -
24.09.2018 12:00:00 - - - - - - -
24.09.2018 11:00:00 27,0 22,4 15 8 SW 1014,8 10
24.09.2018 10:00:00 - - - - - - -
24.09.2018 09:00:00 - - - - - - -
24.09.2018 08:00:00 22,6 21,9 8 4 S 1014,8 8
24.09.2018 07:00:00 - - - - - - -
24.09.2018 06:00:00 - - - - - - -
24.09.2018 05:00:00 20,8 20,3 11 6 SSE 1015,2 6
24.09.2018 04:00:00 - - - - - - -
24.09.2018 03:00:00 - - - - - - -
24.09.2018 02:00:00 20,8 20,1 4 2 N 1017,0 10
24.09.2018 01:00:00 - - - - - - -
24.09.2018 00:00:00 - - - - - - -
23.09.2018 23:00:00 21,8 21,0 4 2 N 1018,2 10
23.09.2018 22:00:00 - - - - - - -
23.09.2018 21:00:00 - - - - - - -
23.09.2018 20:00:00 23,8 20,9 5 3 S 1018,2 10
23.09.2018 19:00:00 - - - - - - -
23.09.2018 18:00:00 - - - - - - -
23.09.2018 17:00:00 28,4 17,6 15 8 WSW 1018,3 10
23.09.2018 16:00:00 - - - - - - -
23.09.2018 15:00:00 - - - - - - -
23.09.2018 14:00:00 30,2 20,2 5 3 N 1018,9 10
23.09.2018 13:00:00 - - - - - - -
23.09.2018 12:00:00 - - - - - - -
23.09.2018 11:00:00 27,2 20,5 4 2 N 1019,8 10
23.09.2018 10:00:00 - - - - - - -
23.09.2018 09:00:00 - - - - - - -
23.09.2018 08:00:00 18,4 17,8 2 1 N 1019,3 0,3
23.09.2018 07:00:00 - - - - - - -
23.09.2018 06:00:00 - - - - - - -
23.09.2018 05:00:00 18,6 17,8 4 2 - 1019,1 2,5
23.09.2018 04:00:00 - - - - - - -
23.09.2018 03:00:00 - - - - - - -
23.09.2018 02:00:00 20,0 19,2 4 2 N 1019,3 10
23.09.2018 01:00:00 - - - - - - -
23.09.2018 00:00:00 - - - - - - -
22.09.2018 23:00:00 21,0 20,2 4 2 N 1019,2 10
22.09.2018 22:00:00 - - - - - - -
22.09.2018 21:00:00 - - - - - - -
22.09.2018 20:00:00 23,8 21,5 5 3 N 1017,9 10
22.09.2018 19:00:00 - - - - - - -
22.09.2018 18:00:00 - - - - - - -
22.09.2018 17:00:00 26,0 20,8 4 2 N 1016,9 10
22.09.2018 16:00:00 - - - - - - -
22.09.2018 15:00:00 - - - - - - -
22.09.2018 14:00:00 28,8 16,7 5 3 N 1017,3 10
22.09.2018 13:00:00 - - - - - - -
22.09.2018 12:00:00 - - - - - - -
22.09.2018 11:00:00 26,8 19,9 4 2 N 1018,2 10
22.09.2018 10:00:00 - - - - - - -
22.09.2018 09:00:00 - - - - - - -
22.09.2018 08:00:00 20,4 19,4 2 1 N 1016,9 8
22.09.2018 07:00:00 - - - - - - -
22.09.2018 06:00:00 - - - - - - -
22.09.2018 05:00:00 18,4 17,8 4 2 SSE 1016,4 10
22.09.2018 04:00:00 - - - - - - -
22.09.2018 03:00:00 - - - - - - -
22.09.2018 02:00:00 19,4 18,7 5 3 ESE 1016,4 10
22.09.2018 01:00:00 - - - - - - -
22.09.2018 00:00:00 - - - - - - -
21.09.2018 23:00:00 20,4 19,7 4 2 E 1016,5 10
21.09.2018 22:00:00 - - - - - - -
21.09.2018 21:00:00 - - - - - - -
21.09.2018 20:00:00 23,8 21,1 4 2 N 1016,0 10
21.09.2018 19:00:00 - - - - - - -
21.09.2018 18:00:00 - - - - - - -
21.09.2018 17:00:00 27,8 21,1 8 4 NNW 1015,8 10
21.09.2018 16:00:00 - - - - - - -
21.09.2018 15:00:00 - - - - - - -
21.09.2018 14:00:00 28,0 20,3 15 8 W 1015,8 10
21.09.2018 13:00:00 - - - - - - -
21.09.2018 12:00:00 - - - - - - -
21.09.2018 11:00:00 28,0 19,5 4 2 N 1016,7 10
21.09.2018 10:00:00 - - - - - - -
21.09.2018 09:00:00 - - - - - - -
21.09.2018 08:00:00 19,0 18,4 0 0 N 1016,1 5
21.09.2018 07:00:00 - - - - - - -
21.09.2018 06:00:00 - - - - - - -
21.09.2018 05:00:00 18,0 17,7 4 2 N 1016,5 6
21.09.2018 04:00:00 - - - - - - -
21.09.2018 03:00:00 - - - - - - -
21.09.2018 02:00:00 19,4 18,6 4 2 N 1016,7 10
21.09.2018 01:00:00 - - - - - - -
21.09.2018 00:00:00 - - - - - - -
20.09.2018 23:00:00 21,2 20,4 4 2 N 1016,8 10
20.09.2018 22:00:00 - - - - - - -
20.09.2018 21:00:00 - - - - - - -
20.09.2018 20:00:00 24,2 20,9 9 5 NNE 1016,4 10
20.09.2018 19:00:00 - - - - - - -
20.09.2018 18:00:00 - - - - - - -
20.09.2018 17:00:00 27,6 19,7 13 7 N 1016,2 10
20.09.2018 16:00:00 28,0 19,0 15 8 NNE - 10
20.09.2018 15:00:00 29,0 19,0 16 9 N - 10
20.09.2018 14:00:00 28,8 20,3 13 7 NNE 1017,0 10
20.09.2018 13:00:00 29,0 17,0 13 7 NE - 10
20.09.2018 12:00:00 - - - - - - -
20.09.2018 11:00:00 27,6 18,9 15 8 NNE 1017,7 10
20.09.2018 10:00:00 - - - - - - -
20.09.2018 09:00:00 - - - - - - -
20.09.2018 08:00:00 20,6 19,6 4 2 W 1017,8 10
20.09.2018 07:00:00 - - - - - - -
20.09.2018 06:00:00 - - - - - - -
20.09.2018 05:00:00 19,4 18,6 0 0 N 1017,8 10
20.09.2018 04:00:00 - - - - - - -
20.09.2018 03:00:00 - - - - - - -
20.09.2018 02:00:00 20,2 18,3 4 2 N 1018,1 10
20.09.2018 01:00:00 - - - - - - -
20.09.2018 00:00:00 - - - - - - -
19.09.2018 23:00:00 23,4 20,5 8 4 ENE 1018,0 10
19.09.2018 22:00:00 23,0 21,0 0 0 N - 10
19.09.2018 21:00:00 24,0 22,0 0 0 N - 10
19.09.2018 20:00:00 25,2 22,1 8 4 WSW 1018,1 10
19.09.2018 19:00:00 26,0 20,0 5 3 - - 10
19.09.2018 18:00:00 28,0 19,0 5 3 - - 10
19.09.2018 17:00:00 30,2 16,2 4 2 N 1017,2 10
19.09.2018 16:00:00 30,0 16,0 11 6 NE - 10
19.09.2018 15:00:00 30,0 17,0 11 6 NE - 10
19.09.2018 14:00:00 31,0 17,3 9 5 E 1018,0 10
19.09.2018 13:00:00 31,0 16,0 5 3 - - 10
19.09.2018 12:00:00 30,0 15,0 5 3 - - 10

tt = temperature
td = dewpoint
ff = wind speed
dd = wind direction
ppp = reduced air pressure
vv = visibility

Next stations